Location: Godiavel Galaoual
(15.2485°N, 12.6604°W)
Time: 11:08:12
(UTC+00:00)

Hubble Space Telescope - Pass Details

Date: 17 May 2021
Orbit: 535 x 539 km, 28.5° (Epoch: 19 June)

Event Time Altitude Azimuth Distance (km) Brightness Sun altitude
Exits shadow 05:37:43 14° 257° (WSW) 1,511 2.4 -10.6°
Maximum altitude 05:41:05 61° 336° (NNW) 601 1.0 -9.9°
Drops below altitude 10° 05:45:09 10° 57° (ENE) 1,773 5.0 -9.0°
Sets 05:47:25 0° 61° (ENE) 2,662 6.6 -8.4°
